Antalya, Turkey

10:23 AM +03 on July 26, 2017 (GMT +0300)
Antalya

Weather History for LTAI - May, 2013

Change the Weather History Date:

Monday, May 6, 2013

  Actual Average Record
Temperature  
Mean Temperature 80 °F -  
Max Temperature 95 °F 80 °F 95 °F (2003)
Min Temperature 66 °F 60 °F 53 °F (1997)
Cooling Degree Days 16    
Growing Degree Days 30 (Base 50)    
Moisture  
Dew Point 57 °F    
Average Humidity 54    
Maximum Humidity 88    
Minimum Humidity 17    
Precipitation  
Precipitation 0.00 in 0.03 in - ()
Sea Level Pressure  
Sea Level Pressure 29.87 in    
Wind  
Wind Speed 7 mph ()    
Max Wind Speed 13 mph    
Max Gust Speed -    
Visibility 6.2 miles    
Events      
Averages and records for this station are not official NWS values.
T = Trace of Precipitation, MM = Missing Value Source: Averaged Metar Reports

Daily Weather History Graph

Daily Weather History Graph

Search for Another Location

Airport or City:

Trip Planner

Search our weather history database for the weather conditions in past years. The results will help you decide how hot, cold, wet, or windy it might be!

Date:

Astronomy

May. 06, 2013 Rise Set
Actual Time 5:57 AM EEST 7:50 PM EEST
Civil Twilight 5:29 AM EEST 8:18 PM EEST
Nautical Twilight 4:55 AM EEST 8:52 PM EEST
Astronomical Twilight 4:18 AM EEST 9:29 PM EEST
Moon 3:43 AM EEST (5/6) 4:34 PM EEST (5/6)
Length of Visible Light 14h 49m
Length of Day
13h 52m
Waning Crescent, 13% of the Moon is Illuminated
May 6
Waning Crescent
May 10
New
May 18
First Quarter
May 25
Full
May 31
Last Quarter

Hourly Weather History & Observations

Time (EEST) Temp. Heat Index Dew Point Humidity Pressure Visibility Wind Dir Wind Speed Gust Speed Precip Events Conditions
12:20 AM 69.8 °F - 66.2 °F 88% 29.92 in - North 5.8 mph - N/A   Clear
12:50 AM 68.0 °F - 62.6 °F 83% 29.89 in - WNW 8.1 mph - N/A   Clear
1:20 AM 68.0 °F - 57.2 °F 68% 29.89 in - NNW 6.9 mph - N/A   Clear
1:50 AM 71.6 °F - 51.8 °F 50% 29.89 in - NNW 10.4 mph - N/A   Clear
2:20 AM 68.0 °F - 51.8 °F 56% 29.89 in - North 8.1 mph - N/A   Clear
2:50 AM 68.0 °F - 51.8 °F 56% 29.89 in - NNW 9.2 mph - N/A   Clear
3:00 AM 68 °F - 53 °F 47% 29.87 in 6 mi NNW 9.2 mph - -  
3:20 AM 68.0 °F - 51.8 °F 56% 29.89 in - North 9.2 mph - N/A   Clear
3:50 AM 69.8 °F - 50.0 °F 49% 29.86 in - NW 9.2 mph - N/A   Clear
4:20 AM 68.0 °F - 50.0 °F 52% 29.86 in - North 6.9 mph - N/A   Clear
4:50 AM 69.8 °F - 48.2 °F 46% 29.86 in - NW 9.2 mph - N/A   Clear
5:20 AM 71.6 °F - 48.2 °F 43% 29.86 in - NW 11.5 mph - N/A   Clear
5:50 AM 69.8 °F - 50.0 °F 49% 29.86 in - NNW 8.1 mph - N/A   Clear
6:20 AM 69.8 °F - 48.2 °F 46% 29.86 in - NNW 8.1 mph - N/A   Clear
6:50 AM 71.6 °F - 50.0 °F 46% 29.86 in - NW 9.2 mph - N/A   Clear
7:20 AM 73.4 °F - 50.0 °F 44% 29.86 in - NNW 8.1 mph - N/A   Clear
7:50 AM 75.2 °F - 51.8 °F 44% 29.86 in - NW 10.4 mph - N/A   Clear
8:20 AM 78.8 °F - 51.8 °F 39% 29.86 in - NW 9.2 mph - N/A   Clear
8:50 AM 82.4 °F - 50.0 °F 32% 29.86 in - NW 9.2 mph - N/A   Clear
9:00 AM 82 °F - 49 °F 22% 29.86 in 6 mi NW 9.2 mph - -  
9:20 AM 84.2 °F - 51.8 °F 33% 29.86 in - NW 11.5 mph - N/A   Clear
9:50 AM 87.8 °F - 46.4 °F 24% 29.89 in - NNW 11.5 mph - N/A   Clear
10:20 AM 89.6 °F - 48.2 °F 24% 29.89 in - NNW 12.7 mph - N/A   Clear
10:50 AM 89.6 °F - 48.2 °F 24% 29.89 in 6.2 mi NNW 10.4 mph - N/A   Partly Cloudy
11:20 AM 91.4 °F - 48.2 °F 23% 29.89 in 6.2 mi NNW 6.9 mph - N/A   Partly Cloudy
11:50 AM 93.2 °F - 44.6 °F 19% 29.89 in 6.2 mi WNW 5.8 mph - N/A   Partly Cloudy
12:20 PM 93.2 °F - 44.6 °F 19% 29.89 in 6.2 mi Variable 5.8 mph - N/A   Partly Cloudy
12:50 PM 93.2 °F - 48.2 °F 21% 29.86 in 6.2 mi Variable 4.6 mph - N/A   Partly Cloudy
1:20 PM 91.4 °F - 46.4 °F 21% 29.86 in 6.2 mi South 11.5 mph - N/A   Partly Cloudy
1:50 PM 91.4 °F 89.1 °F 53.6 °F 28% 29.86 in 6.2 mi South 10.4 mph - N/A   Partly Cloudy
2:20 PM 91.4 °F - 51.8 °F 26% 29.86 in 6.2 mi South 10.4 mph - N/A   Partly Cloudy
2:50 PM 89.6 °F 87.3 °F 53.6 °F 29% 29.83 in 6.2 mi South 10.4 mph - N/A   Partly Cloudy
3:00 PM 90 °F - 51 °F 17% 29.83 in 6 mi South 10.4 mph - -   Scattered Clouds
3:20 PM 86.0 °F 84.9 °F 57.2 °F 37% 29.83 in 6.2 mi South 11.5 mph - N/A   Partly Cloudy
3:50 PM 84.2 °F 83.8 °F 59.0 °F 42% 29.83 in 6.2 mi SSE 9.2 mph - N/A   Scattered Clouds
4:20 PM 82.4 °F 86.3 °F 69.8 °F 66% 29.83 in 6.2 mi SSE 8.1 mph - N/A   Scattered Clouds
4:50 PM 78.8 °F - 69.8 °F 74% 29.83 in 6.2 mi SE 8.1 mph - N/A   Scattered Clouds
5:20 PM 78.8 °F - 68.0 °F 69% 29.83 in 6.2 mi SE 8.1 mph - N/A   Scattered Clouds
5:50 PM 77.0 °F - 71.6 °F 83% 29.86 in 6.2 mi East 6.9 mph - N/A   Scattered Clouds
6:20 PM 77.0 °F - 69.8 °F 78% 29.86 in 6.2 mi ESE 6.9 mph - N/A   Scattered Clouds
6:50 PM 75.2 °F - 69.8 °F 83% 29.86 in 6.2 mi SE 6.9 mph - N/A   Scattered Clouds
7:20 PM 75.2 °F - 69.8 °F 83% 29.86 in 6.2 mi SE 4.6 mph - N/A   Scattered Clouds
7:50 PM 73.4 °F - 69.8 °F 88% 29.86 in 6.2 mi Variable 2.3 mph - N/A   Scattered Clouds
8:20 PM 73.4 °F - 69.8 °F 88% 29.89 in 6.2 mi NE 4.6 mph - N/A   Scattered Clouds
8:50 PM 73.4 °F - 69.8 °F 88% 29.89 in 6.2 mi NNE 3.5 mph - N/A   Scattered Clouds
9:00 PM 73 °F - 69 °F 85% 29.87 in 6 mi NNE 3.5 mph - -   Partly Cloudy
9:20 PM 73.4 °F - 69.8 °F 88% 29.89 in 6.2 mi North 4.6 mph - N/A   Scattered Clouds
9:50 PM 73.4 °F - 69.8 °F 88% 29.89 in 6.2 mi NNW 4.6 mph - N/A   Partly Cloudy
10:20 PM 73.4 °F - 68.0 °F 83% 29.89 in 6.2 mi North 3.5 mph - N/A   Partly Cloudy
10:50 PM 73.4 °F - 68.0 °F 83% 29.89 in 6.2 mi North 5.8 mph - N/A   Partly Cloudy
11:20 PM 71.6 °F - 64.4 °F 78% 29.89 in - NNW 3.5 mph - N/A   Clear
11:50 PM 71.6 °F - 64.4 °F 78% 29.89 in - Variable 2.3 mph - N/A   Clear